THORAD AGENA D DEB, 5066

Orbit data source: Space-Track

THORAD AGENA D DEB, 5066 is space debris in SSO originally from a launch on Wed, 08 Apr 1970 UTC launched from the Air Force Western Test Range (AFWTR). Debris objects in space refer to the collection of defunct objects orbiting the Earth. Examples of debris include non-operational satellites, rocket bodies, and fragments generated from explosions, collisions, or faulty payload assembly.

Loading next visibility...
Identifier
5066, 1970-025JL
Orbit
SSO
Country
Flag of USUS
Related business
Manufacturer
Unknown
Mission
Spacecraft
Bus & Motor
Unknown
Mass
Unknown
Launch date (UTC)
1970-04-08 (56 years ago)
Launch vehicle
Unknown
Launch site
Air Force Western Test Range (AFWTR)
Object type
Payload
Rocket body
Debris
Shape & HBR
Unknown shape, 0.1 m
Radar Cross Section
Small (<0.1 m²)

Expand to show TLE details & history
Last TLE update: 10 hours ago

TLE from 10 hours ago
0 THORAD AGENA D DEB
1 05066U 70025JL  25301.49885895  .00001321  00000-0  86456-3 0  9997
2 05066  99.8896 150.3246 0066586  35.4413 325.1148 14.03136752808169
Epoch: 2025-10-28T11:58Z
TLE epoch observation values (Epoch: 2025-10-28T11:58:21.413Z)
Latitude
-0.00001°
Longitude
-66.3501°
Altitude
846.243 km
Speed
7.45 km/s
True Right ascension
10h 01m 17s
True Declination
0° 00' 00"
Sunlit
Object was in daylight at epoch
Visualization orbit readout
Latitude
Unknown
Longitude
Unknown
Altitude
Unknown
Speed
Unknown
Apparent Right ascension
Unknown
Apparent Declination
Unknown
Sunlit
N/A
Visualization observer readout
Local Sidereal Time
17:01:50
Azimuth
Unknown
Elevation
Unknown
Doppler factor
Unknown
Orbital elements
Apogee altitude
928.524 km
Perigee altitude
831.864 km
Semi-major axis
7,258.331 km
Eccentricity
0.00666
Inclination
99.8896°
RAAN
150.3246°
Arg. of periapsis
35.4413°
True anomaly
324.67541°
Mean anomaly
325.1148°
Eccentric anomaly
324.8954°
Mean motion
3.50985 °/min
Orbital period
102.57 mins
BSTAR
0.00086456
Loading maneuver chart data...
Computing Atmospheric mass density...

Documentation

Showing up to 5 results
|